MPEC 2006-S106: 2006 SO198

The following Minor Planet Electronic Circular may be linked-to from your own Web pages, but must not otherwise be redistributed electronically.


Read MPEC 2006-S105 Read MPEC 2006-S107


M.P.E.C. 2006-S106                               Issued 2006 Sept. 30, 19:28 UT

     The Minor Planet Electronic Circulars contain information on unusual
         minor planets and routine data on comets.  They are published
   on behalf of Commission 20 of the International Astronomical Union by the
          Minor Planet Center, Smithsonian Astrophysical Observatory,
                          Cambridge, MA 02138, U.S.A.

                  Supported in part by the Brinson Foundation
                  Supported in part by the TABASGO Foundation
             Prepared using the Tamkin Foundation Computer Network

                              MPC@CFA.HARVARD.EDU
          URL http://cfa-www.harvard.edu/iau/mpc.html  ISSN 1523-6714

                                  2006 SO198

Observations:
     K06SJ8O* C2006 09 29.33700 02 00 25.08 +03 02 39.4          18.7 R ES106699
     K06SJ8O  C2006 09 29.35892 02 00 27.83 +03 02 17.1                 ES106699
     K06SJ8O  C2006 09 29.38085 02 00 30.65 +03 01 51.6                 ES106699
     K06SJ8O  C2006 09 29.40276 02 00 33.36 +03 01 27.7                 ES106699
     K06SJ8O  C2006 09 30.10656 02 03 07.62 +02 43 57.3                 ES106J95
     K06SJ8O  C2006 09 30.10924 02 03 08.27 +02 43 51.7                 ES106J95
     K06SJ8O  C2006 09 30.11178 02 03 08.77 +02 43 48.8          18.4 R ES106J95
     K06SJ8O  C2006 09 30.30876 02 04 12.28 +02 38 11.9          18.6 V ES106G96
     K06SJ8O  C2006 09 30.31719 02 04 14.44 +02 37 54.5          18.5 V ES106G96
     K06SJ8O  C2006 09 30.32568 02 04 16.60 +02 37 36.9          18.7 V ES106G96
     K06SJ8O  C2006 09 30.33407 02 04 18.73 +02 37 19.3          18.6 V ES106G96

Observer details:
699 Lowell Observatory-LONEOS.  Observer M. E. Van Ness.  0.59-m LONEOS
    Schmidt + CCD.
G96 Mt. Lemmon Survey.  Observer R. A. Kowalski.  Measurers E. C. Beshore,
    E. J. Christensen, G. J. Garradd, A. R. Gibbs, A. D. Grauer, R. E. Hill,
    R. A. Kowalski, S. M. Larson, R. H. McNaught.  1.5-m reflector + CCD.
J95 Great Shefford.  Observer P. Birtwhistle.  0.40-m f/6.0 Schmidt-Cassegrain
    + CCD.

Orbital elements:
2006 SO198                                               Earth MOID = 0.0023 AU
Epoch 2006 Sept. 22.0 TT = JDT 2454000.5                MPC
M 341.19519              (2000.0)            P               Q
n   0.36327998     Peri.  125.40646     -0.71456720     -0.69889214
a   1.9452484      Node    10.37767     +0.57376212     -0.61062026
e   0.8649928      Incl.    9.81788     +0.40023835     -0.37241466
P   2.71           H   23.9           G   0.15           U   9
Residuals in seconds of arc
060929 699  0.7+  1.5-    060930 J95  0.2+  0.1+    060930 G96  0.2+  0.1+
060929 699  0.3+  0.6+    060930 J95  0.8+  0.6-    060930 G96  0.1+  0.1+
060929 699  0.5+  0.0     060930 J95  0.4-  1.1+    060930 G96  0.1-  0.0
060929 699  1.4-  1.4+    060930 G96  0.0   0.1+

Ephemeris:
2006 SO198               a,e,i = 1.95, 0.86, 10                  q = 0.2626
Date    TT    R. A. (2000) Decl.     Delta      r     Elong.  Phase     V
2006 09 22    01 52.47   +03 47.1    0.198    1.180   150.5    24.8    21.9
2006 09 23    01 53.03   +03 45.3    0.179    1.164   151.3    24.5    21.6
2006 09 24    01 53.65   +03 42.8    0.161    1.148   152.1    24.2    21.4
2006 09 25    01 54.34   +03 39.7    0.143    1.132   152.8    23.9    21.1
2006 09 26    01 55.16   +03 35.5    0.125    1.116   153.6    23.6    20.7
2006 09 27    01 56.19   +03 29.8    0.107    1.100   154.3    23.3    20.4
2006 09 28    01 57.54   +03 21.7    0.0891   1.083   154.9    23.1    19.9
2006 09 29    01 59.50   +03 09.5    0.0712   1.067   155.3    23.1    19.4
2006 09 30    02 02.69   +02 49.1    0.0533   1.050   155.4    23.4    18.7
2006 10 01    02 08.98   +02 08.2    0.0355   1.033   154.7    24.4    17.9
2006 10 02    02 27.72   +00 05.0    0.0178   1.017   150.8    28.7    16.4
2006 10 03    08 13.21   -23 39.8    0.00316  0.999    66.1   113.8    15.8
2006 10 04    13 14.21   -07 57.8    0.0185   0.982     9.6   170.2    32.4
2006 10 05    13 32.35   -06 04.6    0.0362   0.965    12.5   167.0    31.0
2006 10 06    13 38.38   -05 25.9    0.0541   0.947    13.0   166.2    31.3
2006 10 07    13 41.37   -05 06.3    0.0720   0.930    12.9   166.1    31.8
2006 10 08    13 43.13   -04 54.5    0.0899   0.912    12.4   166.4    32.4
2006 10 09    13 44.25   -04 46.7    0.108    0.894    11.8   166.7    33.0
2006 10 10    13 45.01   -04 41.3    0.126    0.875    11.2   167.2    33.7
2006 10 11    13 45.54   -04 37.3    0.144    0.857    10.5   167.8    34.3
2006 10 12    13 45.90   -04 34.4    0.162    0.838     9.8   168.3    35.0

Timothy B. Spahr             (C) Copyright 2006 MPC           M.P.E.C. 2006-S106

Read MPEC 2006-S105 Read MPEC 2006-S107


Our Web policy. Index to the CBAT/MPC/ICQ pages.

MPC

Valid HTML 4.01!